SCP
0 0 0 0 0 0 0 0 0 0 0 0 0 0 0 0 0 0 0 0 0 0 0 0 0 0 0 0 0 0 0 0 0 0 0 0 0 0 0 0 0 0 0 0 0 0 0
0 0 0 0 0 0 0 0 0 0 0 0 0 0 0 0 0 0 0 0 0 0 0 0 0 0 0 0 0 0 0 0 0 0 0 0 0 0 0 0 0 0 0 -0 0 0 0
0 0 0 0 0 0 0 0 0 0 0 0 0 0 0 0 0 0 0 0 0 0 0 0 0 0 0 0 0 0 0 0 0 0 0 0 0 0 0 0 0 0 0 0 -0 0 0
0 0 0 0 0 0 0 0 0 0 0 0 0 0 0 0 0 0 0 0 0 0 0 0 0 0 0 0 0 0 0 0 0 0 0 0 0 0 0 0 0 0 0 0 -0 0 0
0 0 0 0 0 0 0 0 0 0 0 0 0 0 0 0 0 0 0 0 0 0 0 0 0 0 0 0 0 0 0 0 0 0 0 0 0 0 0 0 0 0 0 0 0 0 0
0 0 0 0 0 0 0 0 0 0 0 0 0 0 0 0 0 0 0 0 0 0 0 0 0 0 0 0 0 0 0 0 0 0 0 0 0 0 0 0 0 0 0 0 0 0 0
0 0 0 0 0 0 0 0 0 0 0 0 0 0 0 0 0 0 0 -0 -0 0 0 0 0 0 0 0 0 0 0 0 0 0 0 0 0 0 0 0 0 0 0 0 0 0 0
0 0 0 0 0 0 0 0 0 0 0 0 0 0 0 0 0 0 0 0 0 -0 -0 0 0 0 0 0 0 0 0 0 0 0 0 0 0 0 0 0 0 0 0 0 0 0 0
0 0 0 0 0 0 0 0 0 0 0 0 0 0 0 0 0 0 0 0 0 0 0 -0 0 0 0 0 0 0 0 0 0 0 0 0 0 0 0 0 0 0 0 0 0 0 0
0 0 0 0 0 0 0 0 0 0 0 0 0 0 0 0 0 0 0 0 0 0 0 0 0 0 0 0 0 0 0 0 0 0 0 0 0 0 0 0 0 0 0 0 0 0 0
0 0 0 0 0 0 0 0 0 0 0 0 0 0 0 0 0 0 0 0 0 0 0 0 0 0 0 0 0 0 0 0 0 0 0 0 0 0 0 0 0 0 0 0 0 0 0
0 0 0 0 0 0 0 0 0 0 0 0 0 0 0 0 0 0 0 0 0 0 0 0 0 0 0 0 0 0 0 0 0 0 0 0 0 0 0 0 0 0 0 0 0 0 0
0 0 0 0 0 0 0 0 0 0 0 0 0 0 0 0 0 0 0 0 0 0 0 0 0 0 0 0 0 0 0 0 0 0 0 0 0 0 0 0 0 0 0 0 0 0 0
0 0 0 0 0 0 0 0 0 0 0 0 0 0 0 0 0 0 0 0 0 0 0 0 0 0 0 0 0 0 0 0 0 0 0 0 0 0 0 0 0 0 0 0 0 0 0
0 0 0 0 0 0 0 0 0 0 0 0 0 0 0 0 0 0 0 0 0 0 0 0 0 0 0 0 0 0 0 0 0 0 0 0 0 0 0 -0 0 0 0 0 0 0 0
0 0 0 0 0 0 0 0 0 0 0 0 0 0 0 0 0 0 1 0 0 0 0 0 0 0 0 0 0 0 0 0 0 0 0 0 0 0 0 0 0 0 0 0 0 0 0
0 0 0 0 0 0 0 0 0 0 0 0 0 0 -0 0 0 0 0 0 0 0 0 0 0 0 0 0 0 0 0 0 0 0 0 0 0 0 0 0 0 0 0 0 0 0 0
0 0 0 0 0 0 0 0 0 0 0 0 0 0 0 0 0 0 0 0 0 0 0 0 0 0 0 0 0 0 0 0 0 0 0 0 0 0 0 0 0 0 0 0 0 0 0
0 0 0 0 0 0 0 0 0 0 0 0 0 0 0 0 0 0 0 0 0 0 0 0 0 0 0 0 0 0 0 0 0 0 0 0 0 0 0 0 0 0 0 0 0 0 0
0 0 0 0 0 0 0 0 0 0 0 0 0 0 0 0 0 0 0 0 0 0 0 0 0 0 0 0 0 0 0 0 0 0 0 0 0 0 0 0 0 0 0 0 0 0 0
0 0 0 0 0 0 0 0 0 0 0 0 0 0 0 0 0 0 0 0 0 0 0 0 0 0 0 0 0 0 0 0 0 0 0 0 0 0 0 0 0 0 0 0 0 0 0
0 0 0 0 0 0 0 0 0 0 0 0 0 0 0 0 0 0 0 0 0 0 0 0 0 0 0 0 0 0 0 0 0 0 0 0 0 0 0 0 0 0 0 0 0 0 0
0 0 0 0 0 0 0 0 0 0 0 0 0 0 0 0 0 0 0 -0 0 0 0 0 0 0 0 0 0 0 0 0 0 0 0 0 0 0 0 0 0 0 0 0 0 0 0
0 0 0 0 0 0 0 0 0 0 0 0 0 0 0 0 0 -0 0 0 0 0 0 0 0 0 0 0 0 0 0 0 0 0 0 0 0 0 0 0 0 0 0 0 0 0 0
0 0 0 0 0 0 0 0 0 0 0 0 0 0 0 -0 -0 0 -0 0 0 0 0 0 0 0 0 0 1 0 0 0 0 0 0 0 0 0 0 0 0 0 0 0 0 0 0
0 0 0 0 0 0 0 0 0 0 0 0 0 0 0 -0 -0 -0 -0 -0 0 0 0 0 0 0 0 0 0 0 0 0 0 0 0 0 0 0 0 0 0 0 0 0 0 0 0
0 0 0 0 0 0 0 0 0 0 0 0 0 0 0 -0 -0 -0 0 -0 0 0 0 0 0 0 0 0 0 0 0 0 0 0 0 0 0 0 0 0 0 0 0 0 0 0 0
0 0 0 0 0 0 0 0 0 0 0 0 0 0 0 -0 -0 -0 0 -0 0 0 0 0 0 0 0 0 0 0 0 0 0 0 0 0 0 0 0 0 0 0 0 0 0 0 0
0 0 0 0 0 0 0 0 0 0 0 0 0 0 0 0 -0 0 0 0 0 0 0 0 0 0 0 0 0 0 0 0 0 0 0 0 0 0 0 0 0 0 0 0 0 0 0
Wind_Speed_500mb
38 35 38 38 37 35 33 32 30 27 24 21 21 21 25 28 30 33 34 34 33 31 32 34 34 35 31 19 11 10 15 24 18 14 10 16 18 18 9 15 30 4 10 25 13 36 45
50 46 40 36 40 39 37 37 35 33 30 27 23 23 24 25 28 31 33 35 35 34 32 34 34 31 28 16 1 9 18 18 18 13 9 10 11 20 14 12 3 18 27 27 10 22 27
57 55 51 46 42 39 43 39 39 38 36 32 29 26 26 27 28 31 31 32 33 32 33 30 33 34 36 37 21 22 25 29 20 17 20 12 17 16 17 18 14 29 12 12 23 38 15
42 46 56 53 48 45 42 43 43 39 38 37 35 30 28 27 30 33 33 31 31 31 33 33 31 30 29 28 27 34 24 24 31 25 18 13 18 20 13 17 13 9 3 1 12 32 29
32 36 39 40 46 49 45 45 47 45 39 39 38 33 32 28 29 31 31 29 26 26 35 36 33 11 31 10 6 12 22 30 18 25 32 18 19 12 7 1 10 6 8 10 12 34 17
26 28 33 37 44 43 47 45 44 49 49 43 41 39 36 32 31 31 33 35 40 42 30 27 28 15 30 27 3 8 11 15 18 14 20 26 11 2 5 7 9 9 12 9 10 5 8
30 28 27 29 32 41 42 41 42 43 48 52 45 42 40 37 33 34 40 49 33 13 27 19 37 35 51 35 25 25 12 20 17 15 10 13 6 14 25 17 16 10 12 17 9 7 12
34 32 30 29 28 29 33 42 42 41 44 49 48 44 43 41 40 33 33 27 36 19 31 39 53 68 69 58 45 55 29 14 16 13 5 6 13 25 17 17 13 15 16 11 11 11 10
37 36 34 33 32 29 28 29 36 43 42 47 47 42 43 44 41 34 29 35 26 36 20 40 56 54 60 68 76 65 50 28 15 10 12 19 17 22 12 19 15 13 13 7 13 9 13
40 39 37 35 32 31 31 30 31 31 40 44 45 45 39 39 37 27 25 21 21 12 9 15 13 19 29 28 25 76 69 47 14 21 11 17 24 26 31 18 12 10 13 10 12 7 10
41 40 39 38 36 33 32 32 31 30 31 39 42 38 35 38 23 12 10 12 4 6 9 11 12 6 5 30 5 14 83 54 35 17 13 18 6 13 18 18 16 18 19 11 11 7 2
39 39 39 38 38 37 36 33 32 32 32 32 38 38 34 43 47 39 20 14 14 4 19 13 9 15 15 23 13 4 16 57 42 23 19 13 31 8 13 15 16 18 6 6 6 3 8
40 40 39 38 38 37 37 38 34 34 34 34 33 40 45 37 33 33 35 29 7 12 7 13 14 9 16 13 11 14 11 8 13 10 22 26 32 17 16 15 8 7 12 4 7 6 17
42 42 42 40 39 39 39 38 38 33 34 37 38 40 53 61 45 44 21 6 29 29 29 9 10 10 19 17 11 13 11 15 12 9 5 19 23 17 18 19 19 16 17 11 14 9 11
45 43 43 42 41 40 41 39 38 36 31 35 41 48 58 70 55 57 33 20 17 23 18 16 11 9 10 13 14 18 19 28 18 22 20 12 17 9 12 15 18 13 8 18 9 4 2
48 46 44 43 43 42 42 40 37 33 29 30 35 43 74 57 57 50 28 46 19 47 8 23 30 15 18 17 16 16 17 14 27 35 32 15 22 14 16 9 20 34 11 2 4 14 22
51 49 47 46 44 43 42 39 36 33 30 26 30 17 39 43 49 42 33 32 41 62 51 12 22 10 15 14 17 13 15 9 17 20 45 21 16 12 11 14 23 5 9 5 7 10 11
51 51 50 48 45 43 40 38 36 29 24 25 21 9 17 17 24 35 37 55 80 57 49 24 10 10 14 15 11 11 15 21 5 29 16 21 11 14 33 10 12 21 34 30 10 8 6
51 50 49 48 44 42 39 37 33 31 30 30 19 42 56 41 20 38 46 59 70 45 42 23 21 15 12 11 5 13 10 10 14 12 17 11 6 4 11 8 6 2 4 10 9 8 17
49 47 47 43 40 39 37 34 32 31 31 37 21 7 29 53 74 43 53 62 52 103 59 72 14 22 5 12 9 6 12 8 14 9 15 14 7 14 18 12 7 5 6 6 12 9 10
46 44 44 42 40 39 38 37 33 34 31 43 29 11 26 12 36 50 66 46 65 52 73 77 56 39 32 11 15 16 8 2 8 10 11 10 10 9 9 11 9 11 5 3 2 6 12
45 44 43 41 40 40 40 37 33 36 36 52 18 12 22 44 67 44 67 71 73 68 49 46 47 59 40 44 36 22 16 10 12 7 13 8 8 5 4 9 15 13 13 10 3 5 5
43 43 42 41 40 38 39 36 37 39 42 34 35 53 45 34 26 24 43 66 48 69 73 88 63 26 34 55 45 33 45 40 16 18 18 16 13 8 9 6 2 13 22 17 6 3 12
42 39 39 40 38 36 39 39 36 39 40 52 56 36 14 17 22 36 49 60 55 50 57 59 79 46 76 24 46 44 42 37 17 16 18 14 16 8 8 7 12 11 15 23 22 24 18
41 39 38 37 37 38 38 38 36 37 40 51 68 55 18 14 30 42 56 52 66 75 51 53 68 89 67 37 8 3 6 10 21 15 19 12 12 7 12 8 9 6 12 18 20 21 19
37 36 35 35 35 35 38 39 39 38 39 51 65 56 30 14 32 55 54 42 38 41 40 74 74 77 53 6 7 16 13 13 18 24 14 10 9 11 6 11 16 15 9 22 12 11 14
35 35 34 35 33 36 37 42 42 43 46 48 63 67 46 21 63 65 40 46 78 58 32 35 53 36 76 17 15 7 11 13 16 29 14 9 5 16 6 6 13 12 10 34 16 14 16
36 35 35 34 34 36 39 42 42 46 45 47 59 65 68 34 73 89 98 82 68 56 29 42 34 17 22 23 12 9 9 13 10 13 25 13 13 8 6 6 14 24 7 22 13 15 33
36 37 37 36 36 36 39 43 44 45 43 44 52 55 63 66 72 62 73 85 66 59 61 27 32 27 18 11 7 8 9 8 14 16 8 12 14 14 19 13 9 21 13 22 50 55 52
Wind_Direction_500mb
256 259 268 261 259 257 260 263 264 267 268 279 291 300 308 315 321 325 326 327 332 337 340 340 342 344 346 327 291 319 306 319 317 326 333 356 349 358 352 322 335 218 327 337 88 123 109
252 256 262 269 272 264 260 262 264 264 266 270 281 291 300 305 311 313 315 319 324 329 334 333 336 339 336 309 231 298 320 310 318 307 308 356 343 324 294 296 293 312 302 305 126 138 142
250 249 252 258 270 274 269 264 263 264 265 269 274 281 290 298 305 306 307 312 317 321 322 323 324 328 311 276 284 252 276 287 299 281 271 273 311 319 321 306 296 296 297 312 276 159 132
250 250 248 249 253 260 269 270 270 265 266 269 271 274 281 290 301 304 308 311 315 320 315 311 309 313 284 308 265 247 251 260 277 271 271 286 285 294 263 278 315 322 7 18 286 152 186
253 252 251 251 251 251 254 262 269 270 267 268 272 274 275 280 291 299 308 311 312 315 318 299 301 304 280 283 298 276 257 254 262 264 253 273 274 278 275 120 352 317 247 217 295 196 149
261 255 255 256 255 255 254 255 256 265 269 266 270 273 274 279 288 297 301 311 316 319 310 310 272 277 265 269 299 283 211 229 250 258 215 228 227 334 3 88 231 235 311 266 240 221 75
270 265 258 256 259 255 254 255 257 259 265 266 264 267 271 275 281 298 309 334 353 300 318 278 279 271 279 277 285 280 265 251 248 247 203 227 133 221 232 209 240 277 283 261 264 225 114
274 273 269 264 259 258 258 257 257 258 261 267 266 264 267 271 278 289 311 326 304 325 302 288 276 270 265 264 281 270 255 267 205 213 194 294 217 236 244 247 230 278 263 264 290 164 83
274 275 273 272 269 268 267 265 262 258 261 261 265 264 263 266 274 285 299 303 306 323 288 293 262 253 252 232 246 253 256 240 216 219 213 218 232 236 232 256 244 245 231 226 219 314 52
271 272 274 274 275 274 270 269 271 270 259 259 261 262 261 259 273 284 296 303 306 316 308 281 237 252 235 228 260 244 242 236 222 219 213 242 237 242 268 264 196 238 230 259 276 153 213
269 271 270 270 273 273 273 273 270 269 267 258 258 256 254 243 229 227 284 281 234 224 302 246 234 191 203 166 195 240 230 229 229 223 159 227 210 214 238 230 232 233 245 240 254 196 334
265 267 267 268 269 271 274 273 276 276 273 268 255 254 243 235 233 241 233 290 252 95 245 282 222 186 125 202 249 333 170 216 237 224 235 232 265 231 226 254 215 234 222 313 8 137 226
261 262 264 268 270 271 271 273 275 276 279 278 269 248 244 232 241 225 247 280 225 206 284 241 230 181 177 164 221 180 223 190 186 188 229 248 246 260 248 274 296 174 85 305 308 276 244
262 261 261 264 267 271 273 274 276 276 279 280 273 263 243 241 237 217 240 212 234 214 230 345 339 205 190 168 207 195 201 239 229 206 174 218 256 196 238 199 209 217 168 166 212 230 267
260 259 260 261 264 266 268 270 274 275 273 276 277 271 256 233 239 213 226 221 225 228 210 230 330 262 240 210 174 205 212 227 227 183 204 197 234 247 246 240 169 239 157 197 184 236 123
258 258 257 258 260 261 262 263 267 271 274 278 275 284 263 241 238 229 234 228 230 236 246 212 220 201 210 205 177 176 197 214 225 220 203 222 254 221 254 241 256 219 209 160 354 218 252
256 257 255 256 260 262 261 261 264 268 271 279 289 293 284 248 241 241 229 222 216 252 226 206 227 247 223 194 187 191 216 252 203 217 219 200 207 246 213 206 243 171 194 167 169 155 196
253 255 253 254 257 261 261 261 261 262 269 266 274 252 299 250 204 233 232 224 219 228 233 250 259 232 227 191 191 191 216 208 253 213 192 204 182 202 229 220 223 234 212 195 144 228 154
250 252 250 251 255 257 257 258 257 258 258 251 248 253 263 240 234 232 249 234 222 217 219 230 223 217 206 215 207 210 204 194 213 200 171 162 219 133 328 309 4 330 242 161 132 130 200
246 247 248 248 251 252 252 251 258 259 244 233 235 249 248 216 227 241 242 228 233 218 221 224 231 237 228 243 257 242 216 208 211 201 151 124 158 165 205 208 155 230 348 347 163 142 189
244 245 245 245 245 247 246 243 250 248 237 226 223 219 232 239 220 228 237 254 218 214 210 214 225 231 217 220 221 229 213 280 264 191 167 149 186 178 199 162 162 183 182 111 169 133 205
242 245 245 245 244 241 239 239 251 237 224 235 221 205 240 256 255 274 228 232 218 210 194 207 209 214 227 233 219 203 168 200 209 208 189 176 207 124 249 199 210 228 194 156 292 132 238
242 242 244 244 243 244 237 245 254 239 230 239 235 251 253 255 251 261 238 230 224 204 214 207 207 204 203 228 221 226 209 208 205 189 201 162 142 118 223 181 172 270 217 170 173 43 189
237 240 241 242 243 243 241 248 256 243 240 247 245 236 249 272 252 250 256 236 212 213 209 200 204 197 215 243 236 232 238 206 193 264 178 155 144 143 172 105 223 231 199 207 204 210 189
236 238 241 243 243 244 245 248 259 250 251 247 250 238 227 260 261 293 226 236 225 218 217 213 211 212 204 200 125 125 195 202 219 232 249 173 134 136 148 207 293 265 213 200 183 226 188
236 240 242 245 245 247 247 250 253 255 258 250 250 233 243 268 247 263 253 221 214 214 222 227 221 212 198 141 155 184 201 173 163 172 216 104 112 141 144 166 214 216 231 173 101 239 192
238 242 245 247 248 249 252 253 253 258 253 255 254 250 238 254 264 270 270 224 212 218 220 199 192 194 195 196 195 151 204 184 165 167 160 129 76 174 145 201 283 246 245 161 151 233 183
242 245 248 251 251 250 252 254 258 264 262 254 251 244 244 259 270 271 270 240 202 215 203 201 179 189 180 182 188 186 175 200 128 167 173 153 145 173 101 107 264 205 153 174 191 132 160
248 248 250 253 254 252 252 254 256 264 274 261 251 244 257 250 264 276 284 226 229 201 220 199 184 177 170 156 185 170 217 151 144 181 178 187 174 167 182 197 206 200 149 156 149 146 148
Wind_Speed_850mb
38 35 38 38 37 35 33 32 30 27 24 21 21 21 25 28 30 33 34 34 33 31 32 34 34 35 31 19 11 10 15 24 18 14 10 16 18 18 9 15 30 4 10 25 13 36 45
50 46 40 36 40 39 37 37 35 33 30 27 23 23 24 25 28 31 33 35 35 34 32 34 34 31 28 16 1 9 18 18 18 13 9 10 11 20 14 12 3 18 27 27 10 22 27
57 55 51 46 42 39 43 39 39 38 36 32 29 26 26 27 28 31 31 32 33 32 33 30 33 34 36 37 21 22 25 29 20 17 20 12 17 16 17 18 14 29 12 12 23 38 15
42 46 56 53 48 45 42 43 43 39 38 37 35 30 28 27 30 33 33 31 31 31 33 33 31 30 29 28 27 34 24 24 31 25 18 13 18 20 13 17 13 9 3 1 12 32 29
32 36 39 40 46 49 45 45 47 45 39 39 38 33 32 28 29 31 31 29 26 26 35 36 33 11 31 10 6 12 22 30 18 25 32 18 19 12 7 1 10 6 8 10 12 34 17
26 28 33 37 44 43 47 45 44 49 49 43 41 39 36 32 31 31 33 35 40 42 30 27 28 15 30 27 3 8 11 15 18 14 20 26 11 2 5 7 9 9 12 9 10 5 8
30 28 27 29 32 41 42 41 42 43 48 52 45 42 40 37 33 34 40 49 33 13 27 19 37 35 51 35 25 25 12 20 17 15 10 13 6 14 25 17 16 10 12 17 9 7 12
34 32 30 29 28 29 33 42 42 41 44 49 48 44 43 41 40 33 33 27 36 19 31 39 53 68 69 58 45 55 29 14 16 13 5 6 13 25 17 17 13 15 16 11 11 11 10
37 36 34 33 32 29 28 29 36 43 42 47 47 42 43 44 41 34 29 35 26 36 20 40 56 54 60 68 76 65 50 28 15 10 12 19 17 22 12 19 15 13 13 7 13 9 13
40 39 37 35 32 31 31 30 31 31 40 44 45 45 39 39 37 27 25 21 21 12 9 15 13 19 29 28 25 76 69 47 14 21 11 17 24 26 31 18 12 10 13 10 12 7 10
41 40 39 38 36 33 32 32 31 30 31 39 42 38 35 38 23 12 10 12 4 6 9 11 12 6 5 30 5 14 83 54 35 17 13 18 6 13 18 18 16 18 19 11 11 7 2
39 39 39 38 38 37 36 33 32 32 32 32 38 38 34 43 47 39 20 14 14 4 19 13 9 15 15 23 13 4 16 57 42 23 19 13 31 8 13 15 16 18 6 6 6 3 8
40 40 39 38 38 37 37 38 34 34 34 34 33 40 45 37 33 33 35 29 7 12 7 13 14 9 16 13 11 14 11 8 13 10 22 26 32 17 16 15 8 7 12 4 7 6 17
42 42 42 40 39 39 39 38 38 33 34 37 38 40 53 61 45 44 21 6 29 29 29 9 10 10 19 17 11 13 11 15 12 9 5 19 23 17 18 19 19 16 17 11 14 9 11
45 43 43 42 41 40 41 39 38 36 31 35 41 48 58 70 55 57 33 20 17 23 18 16 11 9 10 13 14 18 19 28 18 22 20 12 17 9 12 15 18 13 8 18 9 4 2
48 46 44 43 43 42 42 40 37 33 29 30 35 43 74 57 57 50 28 46 19 47 8 23 30 15 18 17 16 16 17 14 27 35 32 15 22 14 16 9 20 34 11 2 4 14 22
51 49 47 46 44 43 42 39 36 33 30 26 30 17 39 43 49 42 33 32 41 62 51 12 22 10 15 14 17 13 15 9 17 20 45 21 16 12 11 14 23 5 9 5 7 10 11
51 51 50 48 45 43 40 38 36 29 24 25 21 9 17 17 24 35 37 55 80 57 49 24 10 10 14 15 11 11 15 21 5 29 16 21 11 14 33 10 12 21 34 30 10 8 6
51 50 49 48 44 42 39 37 33 31 30 30 19 42 56 41 20 38 46 59 70 45 42 23 21 15 12 11 5 13 10 10 14 12 17 11 6 4 11 8 6 2 4 10 9 8 17
49 47 47 43 40 39 37 34 32 31 31 37 21 7 29 53 74 43 53 62 52 103 59 72 14 22 5 12 9 6 12 8 14 9 15 14 7 14 18 12 7 5 6 6 12 9 10
46 44 44 42 40 39 38 37 33 34 31 43 29 11 26 12 36 50 66 46 65 52 73 77 56 39 32 11 15 16 8 2 8 10 11 10 10 9 9 11 9 11 5 3 2 6 12
45 44 43 41 40 40 40 37 33 36 36 52 18 12 22 44 67 44 67 71 73 68 49 46 47 59 40 44 36 22 16 10 12 7 13 8 8 5 4 9 15 13 13 10 3 5 5
43 43 42 41 40 38 39 36 37 39 42 34 35 53 45 34 26 24 43 66 48 69 73 88 63 26 34 55 45 33 45 40 16 18 18 16 13 8 9 6 2 13 22 17 6 3 12
42 39 39 40 38 36 39 39 36 39 40 52 56 36 14 17 22 36 49 60 55 50 57 59 79 46 76 24 46 44 42 37 17 16 18 14 16 8 8 7 12 11 15 23 22 24 18
41 39 38 37 37 38 38 38 36 37 40 51 68 55 18 14 30 42 56 52 66 75 51 53 68 89 67 37 8 3 6 10 21 15 19 12 12 7 12 8 9 6 12 18 20 21 19
37 36 35 35 35 35 38 39 39 38 39 51 65 56 30 14 32 55 54 42 38 41 40 74 74 77 53 6 7 16 13 13 18 24 14 10 9 11 6 11 16 15 9 22 12 11 14
35 35 34 35 33 36 37 42 42 43 46 48 63 67 46 21 63 65 40 46 78 58 32 35 53 36 76 17 15 7 11 13 16 29 14 9 5 16 6 6 13 12 10 34 16 14 16
36 35 35 34 34 36 39 42 42 46 45 47 59 65 68 34 73 89 98 82 68 56 29 42 34 17 22 23 12 9 9 13 10 13 25 13 13 8 6 6 14 24 7 22 13 15 33
36 37 37 36 36 36 39 43 44 45 43 44 52 55 63 66 72 62 73 85 66 59 61 27 32 27 18 11 7 8 9 8 14 16 8 12 14 14 19 13 9 21 13 22 50 55 52
Wind_Direction_850mb
256 259 268 261 259 257 260 263 264 267 268 279 291 300 308 315 321 325 326 327 332 337 340 340 342 344 346 327 291 319 306 319 317 326 333 356 349 358 352 322 335 218 327 337 88 123 109
252 256 262 269 272 264 260 262 264 264 266 270 281 291 300 305 311 313 315 319 324 329 334 333 336 339 336 309 231 298 320 310 318 307 308 356 343 324 294 296 293 312 302 305 126 138 142
250 249 252 258 270 274 269 264 263 264 265 269 274 281 290 298 305 306 307 312 317 321 322 323 324 328 311 276 284 252 276 287 299 281 271 273 311 319 321 306 296 296 297 312 276 159 132
250 250 248 249 253 260 269 270 270 265 266 269 271 274 281 290 301 304 308 311 315 320 315 311 309 313 284 308 265 247 251 260 277 271 271 286 285 294 263 278 315 322 7 18 286 152 186
253 252 251 251 251 251 254 262 269 270 267 268 272 274 275 280 291 299 308 311 312 315 318 299 301 304 280 283 298 276 257 254 262 264 253 273 274 278 275 120 352 317 247 217 295 196 149
261 255 255 256 255 255 254 255 256 265 269 266 270 273 274 279 288 297 301 311 316 319 310 310 272 277 265 269 299 283 211 229 250 258 215 228 227 334 3 88 231 235 311 266 240 221 75
270 265 258 256 259 255 254 255 257 259 265 266 264 267 271 275 281 298 309 334 353 300 318 278 279 271 279 277 285 280 265 251 248 247 203 227 133 221 232 209 240 277 283 261 264 225 114
274 273 269 264 259 258 258 257 257 258 261 267 266 264 267 271 278 289 311 326 304 325 302 288 276 270 265 264 281 270 255 267 205 213 194 294 217 236 244 247 230 278 263 264 290 164 83
274 275 273 272 269 268 267 265 262 258 261 261 265 264 263 266 274 285 299 303 306 323 288 293 262 253 252 232 246 253 256 240 216 219 213 218 232 236 232 256 244 245 231 226 219 314 52
271 272 274 274 275 274 270 269 271 270 259 259 261 262 261 259 273 284 296 303 306 316 308 281 237 252 235 228 260 244 242 236 222 219 213 242 237 242 268 264 196 238 230 259 276 153 213
269 271 270 270 273 273 273 273 270 269 267 258 258 256 254 243 229 227 284 281 234 224 302 246 234 191 203 166 195 240 230 229 229 223 159 227 210 214 238 230 232 233 245 240 254 196 334
265 267 267 268 269 271 274 273 276 276 273 268 255 254 243 235 233 241 233 290 252 95 245 282 222 186 125 202 249 333 170 216 237 224 235 232 265 231 226 254 215 234 222 313 8 137 226
261 262 264 268 270 271 271 273 275 276 279 278 269 248 244 232 241 225 247 280 225 206 284 241 230 181 177 164 221 180 223 190 186 188 229 248 246 260 248 274 296 174 85 305 308 276 244
262 261 261 264 267 271 273 274 276 276 279 280 273 263 243 241 237 217 240 212 234 214 230 345 339 205 190 168 207 195 201 239 229 206 174 218 256 196 238 199 209 217 168 166 212 230 267
260 259 260 261 264 266 268 270 274 275 273 276 277 271 256 233 239 213 226 221 225 228 210 230 330 262 240 210 174 205 212 227 227 183 204 197 234 247 246 240 169 239 157 197 184 236 123
258 258 257 258 260 261 262 263 267 271 274 278 275 284 263 241 238 229 234 228 230 236 246 212 220 201 210 205 177 176 197 214 225 220 203 222 254 221 254 241 256 219 209 160 354 218 252
256 257 255 256 260 262 261 261 264 268 271 279 289 293 284 248 241 241 229 222 216 252 226 206 227 247 223 194 187 191 216 252 203 217 219 200 207 246 213 206 243 171 194 167 169 155 196
253 255 253 254 257 261 261 261 261 262 269 266 274 252 299 250 204 233 232 224 219 228 233 250 259 232 227 191 191 191 216 208 253 213 192 204 182 202 229 220 223 234 212 195 144 228 154
250 252 250 251 255 257 257 258 257 258 258 251 248 253 263 240 234 232 249 234 222 217 219 230 223 217 206 215 207 210 204 194 213 200 171 162 219 133 328 309 4 330 242 161 132 130 200
246 247 248 248 251 252 252 251 258 259 244 233 235 249 248 216 227 241 242 228 233 218 221 224 231 237 228 243 257 242 216 208 211 201 151 124 158 165 205 208 155 230 348 347 163 142 189
244 245 245 245 245 247 246 243 250 248 237 226 223 219 232 239 220 228 237 254 218 214 210 214 225 231 217 220 221 229 213 280 264 191 167 149 186 178 199 162 162 183 182 111 169 133 205
242 245 245 245 244 241 239 239 251 237 224 235 221 205 240 256 255 274 228 232 218 210 194 207 209 214 227 233 219 203 168 200 209 208 189 176 207 124 249 199 210 228 194 156 292 132 238
242 242 244 244 243 244 237 245 254 239 230 239 235 251 253 255 251 261 238 230 224 204 214 207 207 204 203 228 221 226 209 208 205 189 201 162 142 118 223 181 172 270 217 170 173 43 189
237 240 241 242 243 243 241 248 256 243 240 247 245 236 249 272 252 250 256 236 212 213 209 200 204 197 215 243 236 232 238 206 193 264 178 155 144 143 172 105 223 231 199 207 204 210 189
236 238 241 243 243 244 245 248 259 250 251 247 250 238 227 260 261 293 226 236 225 218 217 213 211 212 204 200 125 125 195 202 219 232 249 173 134 136 148 207 293 265 213 200 183 226 188
236 240 242 245 245 247 247 250 253 255 258 250 250 233 243 268 247 263 253 221 214 214 222 227 221 212 198 141 155 184 201 173 163 172 216 104 112 141 144 166 214 216 231 173 101 239 192
238 242 245 247 248 249 252 253 253 258 253 255 254 250 238 254 264 270 270 224 212 218 220 199 192 194 195 196 195 151 204 184 165 167 160 129 76 174 145 201 283 246 245 161 151 233 183
242 245 248 251 251 250 252 254 258 264 262 254 251 244 244 259 270 271 270 240 202 215 203 201 179 189 180 182 188 186 175 200 128 167 173 153 145 173 101 107 264 205 153 174 191 132 160
248 248 250 253 254 252 252 254 256 264 274 261 251 244 257 250 264 276 284 226 229 201 220 199 184 177 170 156 185 170 217 151 144 181 178 187 174 167 182 197 206 200 149 156 149 146 148